Regional Weather Roundup
Issued by NWS Charleston, SC

Current Version | Previous Version | Graphics & Text | Print | Product List | Glossary On
Versions: 1 2 3 4 5 6 7 8 9 10 11 12 13 14 15 16 17 18 19 20 21 22 23 24 25 26 27 28 29 30 31 32 33 34 35 36 37 38 39 40 41 42 43 44 45 46 47 48 49 50
613
ASUS42 KCHS 211827
RWRCHS

REGIONAL WEATHER ROUNDUP
NATIONAL WEATHER SERVICE CHARLESTON SC
200 PM EDT FRI JUL 21 2017

NOTE: "FAIR" INDICATES FEW OR NO CLOUDS BELOW 12,000 FEET WITH NO
SIGNIFICANT WEATHER AND/OR OBSTRUCTIONS TO VISIBILITY.

NOT ALL STATIONS ARE QUALITY CONTROLLED. USE DATA WITH CAUTION...
ESPECIALLY DEWPOINT OBSERVATIONS.

SCZ027-030-031-034>040-042>050-211900-
...SOUTHEAST SOUTH CAROLINA...

CITY           SKY/WX    TMP DP  RH WIND       PRES   REMARKS
N CHARLESTON   MOSUNNY   91  75  59 W8        30.03F HX 101
6HR MIN TEMP:  77; 6HR MAX TEMP:  91;

WATERFRONT PRK   N/A     85  78  79 S12       30.03F HX  97
JOHNS ISLAND   FAIR      88  77  70 S9G16     30.04F HX 100
PINOPOLIS        N/A     90  73  58 CALM      29.97F HX  98
MONCKS CORNER  FAIR      90  68  48 SW7       30.02F HX  93
SUMMERVILLE    FAIR      91  72  52 S3        30.03F HX  98
BEAUFORT MCAS  MOSUNNY   90  79  70 S6        30.04F HX 106
6HR MIN TEMP:  77; 6HR MAX TEMP:  91;

BEAUFORT ARPT  FAIR      88  75  66 S8        30.04F HX  97
HILTON HEAD IS SUNNY     88  75  66 S10       30.06F HX  97
WALTERBORO     PTCLDY    90  73  58 SE9       30.03F HX  98
ALLENDALE      NOT AVBL

...SOUTHERN MIDLANDS AND PEE DEE...

CITY           SKY/WX    TMP DP  RH WIND       PRES   REMARKS
GEORGETOWN     MOCLDY    88  79  74 S8        30.03F HX 102
KINGSTREE      FAIR      90  73  58 CALM      30.02F HX  98
ORANGEBURG     MOSUNNY   91  75  59 S6        30.03F HX 101
6HR MIN TEMP:  74; 6HR MAX TEMP:  92;

BARNWELL       FAIR      95  75  52 S7        30.01F HX 107
AIKEN          FAIR      91  75  59 S9        30.06F HX 102
MANNING        FAIR      90  68  48 W23       30.02F HX  93
COLUMBIA       MOSUNNY   95  74  50 S7        30.00F HX 105
6HR MIN TEMP:  76; 6HR MAX TEMP:  95;

SUMTER         MOSUNNY   93  73  52 SW7       29.99F HX 102
6HR MIN TEMP:  75; 6HR MAX TEMP:  93;

FLORENCE       SUNNY     92  75  57 S9        30.01F HX 103
6HR MIN TEMP:  76; 6HR MAX TEMP:  92;

MYRTLE BEACH   MOSUNNY   88  75  66 S16       30.04F HX  97
N MYRTLE BEACH SUNNY     86  75  69 S14       30.03F HX  95
6HR MIN TEMP:  79; 6HR MAX TEMP:  88; 6HR PCP:  0.04;


$$

GAZ063-065-086>088-099>101-113>116-118-119-134>141-150-211900-
...SOUTHEAST GEORGIA...

CITY           SKY/WX    TMP DP  RH WIND       PRES   REMARKS
SAVANNAH ARPT  MOSUNNY   92  73  53 SW8       30.03F HX 101
6HR MIN TEMP:  75; 6HR MAX TEMP:  92;

HUNTER AAF     MOSUNNY   90  75  60 SE7       30.01F HX 101
6HR MIN TEMP:  76; 6HR MAX TEMP:  90;

FORT STEWART   MOSUNNY   91  76  60 S8        30.01F HX 102
6HR MIN TEMP:  72; 6HR MAX TEMP:  91;

STATESBORO     SUNNY     93  76  58 S3        30.02F HX 106
SYLVANIA       PTCLDY    93  80  66 SW5       30.02F HX 112
CLAXTON        FAIR      92  77  61 CALM      30.02F HX 107

...CSRA...CENTRAL AND FAR SOUTHEAST GEORGIA...

CITY           SKY/WX    TMP DP  RH WIND       PRES   REMARKS
THOMSON        PTSUNNY   92  71  50 SW5       30.06F HX  99
AUGUSTA-BUSH   SUNNY     95  78  58 VRB3      30.01F HX 111
6HR MIN TEMP:  75; 6HR MAX TEMP:  95;

AUGUSTA-DANIEL SUNNY     94  72  48 VRB7      30.03F HX 102
SWAINSBORO     FAIR      95  73  49 SW3       30.02F HX 105
VIDALIA        MOSUNNY   91  77  62 SE3       30.02F HX 105
EASTMAN        FAIR      93  59  32 SW3       30.03F HX  92
HAZLEHURST     FAIR      93  77  58 SW7       30.01F HX 106
ALMA           MOSUNNY   92  76  59 SE5       30.03F HX 104
6HR MIN TEMP:  75; 6HR MAX TEMP:  93;

WAYCROSS       MOSUNNY   94  79  61 S5        30.02F HX 112
JESUP          NOT AVBL
BAXLEY         FAIR      91  81  70 SE5       30.01F HX 110
BRUNSWICK      SUNNY     90  75  62 E8        30.04F HX 100
SAINT SIMONS   SUNNY     89  75  63 SE10      30.05F HX  99
6HR MIN TEMP:  79; 6HR MAX TEMP:  89;


$$

SCZ027-028-034-036>038-045-046-048>050-GAZ119-141-211900-
...LAKE AND SUPPLEMENTAL COASTAL OBSERVATIONS...

STATION/POSITION TIME  TEMP    WIND        PRES    WAVE   SWELL
                       AIR SEA DIR/SP/G            HT/PER HT/PER/DIR
                 (UTC) (F)     (DEG/KT/KT) (MB)    (FT/S) (FT/S/D)
WINYAH BAY       1745   87     190/ 10     1017.0F
LAKE MURRAY      1730   89     190/  1/  2 1015.6F
ACE BASIN NERRS  1745   87     170/  2     1017.0F
FORT PULASKI     1800   86 86  190/  6/ 10 1017.6
SAPELO ISLAND    1800   91     150/  7     1017.0

$$

ANZ835-935-AMZ111-154-330-350-352-354-370-450-454-472-211900-
...C-MAN AND BUOY OBSERVATIONS...

STATION/POSITION TIME  TEMP    WIND        PRES    WAVE   SWELL
                       AIR SEA DIR/SP/G            HT/PER HT/PER/DIR
                 (UTC) (F)     (DEG/KT/KT) (MB)    (FT/S) (FT/S/D)
BUOY 41004       1810   83 84  200/ 10/ 10 1017.3
BUOY 41008       1750   82 85  160/  8/  8 1017.6F   2/ 8   2/ 90/ 8
FOLLY BEACH CMAN 1800   85     190/ 10/ 12 1018.1F
CAPERS NEARSHORE 1808   82 84  210/ 12/ 17 1017.3F
FRIPP NEARSHORE  1808   83 85  190/ 10/ 12 1017.2F


STATION/POSITION TIME  TEMP    WIND        PRES    WAVE   SWELL
                       AIR SEA DIR/SP/G            HT/PER HT/PER/DIR
                 (UTC) (F)     (DEG/KT/KT) (MB)    (FT/S) (FT/S/D)
5E ST. MARYS GA  1800      85                N/A     2/ 7
FRYING PAN BUOY  1810   83 84  240/ 12/ 14 1017.0
BUOY 41025       1750   83 85  220/ 16/ 17 1016.1F   3/ 8   2/140/ 8
CAPE LOOKOUT NC  1800   84     230/ 11/ 14 1016.2F
BUOY 41002       1750   82 84  240/ 10/ 12 1019.0F   4/ 9   3/120/ 9
BUOY 41010       1810   83 85  350/  2/  2 1018.0
ST AUGUSTINE FL  1800   81 83  110/  6/  6 1018.5F


$$




USA.gov is the U.S. government's official web portal to all federal, state and local government web resources and services.